This is the latest recevied weather packets stored in our database for station/object SR2GKG-13. If no packets are shown the sender has not sent any weather packets the latest 10 day(s).
| Time | Temp. | Humidity | Pressure | Rain* | Wind** | Luminosity | Snow |
|---|---|---|---|---|---|---|---|
| 1777349297 | -2.22° C | 82% | 1014 hPa | - | - | - | - |
| 1777348397 | -2.22° C | 86% | 1014.2 hPa | - | - | - | - |
| 1777347497 | -2.78° C | 83% | 1014.1 hPa | - | - | - | - |
| 1777346597 | -3.33° C | 84% | 1014.1 hPa | - | - | - | - |
| 1777345697 | -3.33° C | 82% | 1014 hPa | - | - | - | - |
| 1777344797 | -3.33° C | 82% | 1014 hPa | - | - | - | - |
| 1777343897 | -2.78° C | 83% | 1013.9 hPa | - | - | - | - |
| 1777342997 | -2.78° C | 80% | 1013.9 hPa | - | - | - | - |
| 1777342096 | -2.78° C | 80% | 1013.8 hPa | - | - | - | - |
| 1777341196 | -2.22° C | 79% | 1013.5 hPa | - | - | - | - |
| 1777340296 | -2.22° C | 79% | 1013.5 hPa | - | - | - | - |
| 1777339396 | -2.22° C | 77% | 1013.5 hPa | - | - | - | - |
| 1777338496 | -2.22° C | 76% | 1013.5 hPa | - | - | - | - |
| 1777337596 | -1.67° C | 75% | 1013.5 hPa | - | - | - | - |
| 1777336696 | -1.67° C | 74% | 1013.4 hPa | - | - | - | - |
| 1777335795 | -1.11° C | 73% | 1013.4 hPa | - | - | - | - |
| 1777334895 | -1.11° C | 70% | 1013.4 hPa | - | - | - | - |
| 1777333995 | -1.11° C | 68% | 1013.4 hPa | - | - | - | - |
| 1777333095 | -0.56° C | 66% | 1013.4 hPa | - | - | - | - |
| 1777332195 | 0° C | 65% | 1013.3 hPa | - | - | - | - |
| 1777331295 | 0° C | 64% | 1013.1 hPa | - | - | - | - |
| 1777330395 | 0.56° C | 63% | 1013 hPa | - | - | - | - |
| 1777329495 | 1.11° C | 61% | 1012.9 hPa | - | - | - | - |
| 1777328596 | 1.11° C | 60% | 1012.7 hPa | - | - | - | - |
| 1777327696 | 1.67° C | 60% | 1012.6 hPa | - | - | - | - |
* Rain since midnight (hover to see other rain measurements)
** Current wind speed in m/s (hover to see current wind gust speed)